Upgrade to All Levels — (Run) Super Mario Bros. 2
Total: $11,864.25
Goal: $30,000.00

Description
Upgrade the category of the Super Mario Bros. 2 run to complete All Levels.
NameAscDsc Time ReceivedAscDsc AmountAscDsc
Poochy.EXE 2024-01-20T05:55:58.738591-05:00 $100.00
thebigKM 2024-01-17T10:29:11.994291-05:00 $100.00
Slurmaholic 2024-01-17T10:28:26.120560-05:00 $25.00
SilverBeagle06 2024-01-17T10:28:15.420137-05:00 $50.00
Zero Issues 2024-01-17T10:27:31.972865-05:00 $250.00
Lollicat 2024-01-17T10:27:15.455566-05:00 $25.00
SkyguyLP 2024-01-17T10:27:06.457234-05:00 $25.00
Sir Iron 2024-01-17T10:25:49.604683-05:00 $15.00
(Anonymous) 2024-01-17T10:24:54.406463-05:00 $20.00
(Anonymous) 2024-01-17T10:24:52.920468-05:00 $12.00
PikachuPhD 2024-01-17T10:24:37.724562-05:00 $50.00
Spirit Bear 2024-01-17T10:24:26.378357-05:00 $100.00
Aziels 2024-01-17T10:23:59.941275-05:00 $50.00
Herewaard 2024-01-17T10:23:55.692637-05:00 $100.00
earthmeLon 2024-01-17T10:23:42.651842-05:00 $50.00
SuperSnackBros 2024-01-17T10:23:17.554641-05:00 $100.00
Pkmnmastah 2024-01-17T10:22:49.495212-05:00 $10.00
fly_on_wall 2024-01-17T10:22:40.544515-05:00 $50.00
tinysinecurve 2024-01-17T10:22:08.452980-05:00 $10.00
(Anonymous) 2024-01-17T10:22:04.836215-05:00 $75.00
(Anonymous) 2024-01-17T10:21:59.440586-05:00 $10.00
TheProtoHobo 2024-01-17T10:20:18.596530-05:00 $5.00
Alane 2024-01-17T10:19:13.097335-05:00 $25.00
RetroMG 2024-01-17T10:18:06.888609-05:00 $5.00
(Anonymous) 2024-01-17T10:18:03.878040-05:00 $50.00
Vale 2024-01-17T10:17:34.724602-05:00 $5.00
Weirdaholic 2024-01-17T10:17:25.180219-05:00 $100.00
Benja 2024-01-17T10:16:01.381117-05:00 $50.00
Eva 2024-01-17T10:15:39.253802-05:00 $25.00
Ray 2024-01-17T10:15:07.178252-05:00 $10.00
Dainslaif 2024-01-17T10:15:02.524630-05:00 $10.00
Venescas 2024-01-17T10:13:31.873529-05:00 $50.00
PB fam 2024-01-17T10:13:28.736183-05:00 $30.00
ChiiZeKitty 2024-01-17T10:13:28.159970-05:00 $5.00
(Anonymous) 2024-01-17T10:11:46.651971-05:00 $50.00
opticwalrus 2024-01-17T10:11:30.547956-05:00 $25.00
Slickify 2024-01-17T10:11:22.627526-05:00 $10.00
Kineticka 2024-01-17T10:10:40.990239-05:00 $10.00
Zanoth 2024-01-17T10:10:12.689042-05:00 $50.00
(Anonymous) 2024-01-17T10:09:59.408388-05:00 $20.00
Omniscientcrow 2024-01-17T10:09:19.267120-05:00 $50.00
(Anonymous) 2024-01-17T10:08:34.505215-05:00 $5.00
Sarenyia 2024-01-17T10:08:20.836435-05:00 $5.00
dog 2024-01-17T10:08:18.359867-05:00 $25.00
Poison facts! 2024-01-17T10:08:00.009818-05:00 $25.00
The Sound Defense 2024-01-17T10:07:06.520612-05:00 $50.00
Panz 2024-01-17T10:07:05.492364-05:00 $25.00
Kt 2024-01-17T10:06:54.543626-05:00 $25.00
SinReglas 2024-01-17T10:06:50.972152-05:00 $8.40
nota999 2024-01-17T10:06:44.766932-05:00 $10.00

|< >|

Back to Bid Index

Back to Main Index

Running on Django with Python
Python code by UraniumAnchor, SMK, and jdeng
CSS by Cool Matty